User: anonymous   Login
Location: Albany
(35.0000°S, 118.0000°E)
Time: 05:49:14
(UTC-05:00)
Language:

CZ-4B R/B - Orbit

View from above orbital plane
View from above orbital plane
View from above satellite
View from above satellite

Ground track
Ground track

The orbit data is extracted from the following two-line orbital elements,

1 33410U 08053C   16040.10954301  .00002475  00000-0  18736-3 0  9997
2 33410  97.6633  11.5591 0123329  49.4294 311.7584 14.97336812396822
Epoch (UTC): 09 February 2016 02:37:44
Eccentricity: 0.0123329
inclination: 97.6633°
perigee height: 489 km
apogee height: 661 km
right ascension of ascending node: 11.5591°
argument of perigee: 49.4294°
revolutions per day: 14.97336812
mean anomaly at epoch: 311.7584°
orbit number at epoch: 39682

The dashed part of the orbit path shows where the satellite is in the earth's shadow,  

DLR